Content
SEND FEEDBACK

Daily
Averages
Monthly
Summary
Australia

CARLTON HILL, WESTERN AUSTRALIA


Home > Oceania > Australia > Western Australia
Elevation: 101 feet     Latitude: 15 39S     Longitude: 128 42E

WEATHER
 
SELECT A DAY
Number of Records: 220,788;   Date Range: 10/20/03 - 10/20/14
 
SHARE

PRINT THIS DATA

[ ← Previous Day ]
WEATHER ALMANAC - JANUARY 31, 2013
[ Next Day → ]
[ °C ]   °F
Weather ElementAverageHighLow
Temperature86.1 °F99 °F (2:00 pm)75.2 °F (4:30 am)
Dewpoint72.6 °F77 °F (7:00 am)68 °F (1:00 pm)
Humidity65.2 %94 % (1:00 am)30 % (2:00 pm)
Barometer29.81 in29.88 in (8:00 am)29.71 in (4:00 pm)
Wind Speed4.7 mph15 mph (6:30 pm)
Weather ElementAverage
Visibility6.6 mi
Wind DirectionSSE (172.2 °)

Weather ElementTotal
Precipitation---
Cooling Degree Days22.1 (Base 65)
Growing Degree Days37.1 (Base 50)
Averaged from 61 records on January 31, 2013
WEATHER CONDITIONS BREAKOUT
WIND DIRECTION BREAKOUT
WEATHER BY HOUR - JANUARY 31, 2013
[ °C ]   °F
Local TimeTemperatureDewpointHumidityBarometerVisibilityWind DirectionWind SpeedGust SpeedPrecipitationEventsConditions
12:00 AM77.0 °F73.4 °F89 %29.83 in6.2 miSouth (170°)4.6 mph
12:30 AM77.0 °F73.4 °F89 %29.83 in6.2 miENE (60°)3.5 mph
1:00 AM77.0 °F75.2 °F94 %29.83 in6.2 miCalm
1:30 AM77.0 °F75.2 °F94 %29.80 in6.2 miCalm
2:00 AM76.0 °F74.0 °F92 %29.81 inCalm
3:00 AM76.0 °F73.0 °F88 %29.82 inENE (60°)4.6 mph
3:00 AM77.0 °F73.4 °F89 %29.83 in6.2 miENE (60°)4.6 mph
3:30 AM77.0 °F73.4 °F89 %29.83 in6.2 miEast (80°)4.6 mph
4:00 AM77.0 °F75.2 °F94 %29.83 in6.2 miEast (90°)2.3 mph
4:30 AM75.2 °F73.4 °F94 %29.83 in6.2 miCalm
5:00 AM76.0 °F73.0 °F88 %29.83 inNNW (340°)3.5 mph
5:00 AM75.2 °F73.4 °F94 %29.83 in6.2 miNNW (340°)3.5 mph
5:30 AM75.2 °F73.4 °F94 %29.83 in6.2 miCalm
6:00 AM77.0 °F74.0 °F88 %29.85 in19.0 miCalmPartly Cloudy
6:00 AM77.0 °F73.4 °F89 %29.86 in6.2 miCalm
6:30 AM78.8 °F75.2 °F89 %29.86 in6.2 miSSW (210°)1.2 mph
7:00 AM82.4 °F77.0 °F84 %29.86 in6.2 miSouth (180°)4.6 mph
7:30 AM84.2 °F75.2 °F74 %29.86 in6.2 miSouth (170°)3.5 mph
8:00 AM87.0 °F74.0 °F58 %29.88 inCalm
8:00 AM87.8 °F75.2 °F66 %29.86 in6.2 miCalm
8:30 AM86.0 °F75.2 °F70 %29.86 in6.2 miWNW (300°)3.5 mph
9:00 AM88.0 °F76.0 °F59 %29.86 in12.0 miNNE (20°)2.3 mphPartly Cloudy
9:00 AM87.8 °F75.2 °F66 %29.86 in6.2 miNNE (20°)2.3 mph
9:30 AM89.6 °F75.2 °F62 %29.86 in6.2 miNorth (360°)2.3 mph
10:00 AM91.4 °F75.2 °F59 %29.86 in6.2 miWest (270°)3.5 mph
10:30 AM91.4 °F75.2 °F59 %29.83 in6.2 miNW (320°)6.9 mph
11:00 AM92.0 °F74.0 °F46 %29.83 inNNW (330°)6.9 mph
11:00 AM93.2 °F73.4 °F52 %29.83 in6.2 miNNW (330°)6.9 mph
11:30 AM93.2 °F75.2 °F56 %29.83 in6.2 miNorth (360°)4.6 mph
12:00 PM93.2 °F73.4 °F52 %29.80 in6.2 miNNE (30°)5.8 mph
12:00 PM94.0 °F72.0 °F40 %29.81 inNNE (30°)5.8 mph
12:30 PM95.0 °F69.8 °F44 %29.77 in6.2 miNorth (360°)8.1 mph
1:00 PM95.0 °F68.0 °F41 %29.77 in6.2 miNorth (10°)6.9 mph
1:30 PM96.8 °F69.8 °F41 %29.77 in6.2 miNNW (340°)5.8 mph
2:00 PM99.0 °F71.0 °F30 %29.75 inWest (280°)2.3 mph
2:00 PM98.6 °F69.8 °F39 %29.74 in6.2 miWest (280°)2.3 mph
2:30 PM96.8 °F69.8 °F41 %29.74 in6.2 miNorth (360°)3.5 mph
3:00 PM98.6 °F69.8 °F39 %29.74 in6.2 miWNW (300°)3.5 mph
3:00 PM99.0 °F70.0 °F30 %29.74 in9.0 miWNW (300°)3.5 mphPartly Cloudy
3:30 PM98.6 °F68.0 °F37 %29.74 in6.2 miNNW (330°)3.5 mph
4:00 PM98.6 °F68.0 °F37 %29.71 in6.2 miSSE (160°)5.8 mph
4:30 PM98.6 °F71.6 °F42 %29.71 in6.2 miSE (130°)4.6 mph
5:00 PM95.0 °F72.0 °F38 %29.74 inNorth11.5 mph
5:00 PM95.0 °F71.6 °F47 %29.74 in6.2 miNorth (360°)11.5 mph
5:30 PM93.2 °F71.6 °F49 %29.74 in6.2 miNE (50°)9.2 mph
6:00 PM89.6 °F73.4 °F59 %29.77 in6.2 miNorth (350°)9.2 mph
6:00 PM89.0 °F74.0 °F53 %29.76 inNorth (350°)9.2 mph
6:30 PM87.8 °F69.8 °F55 %29.77 in6.2 miNorth (360°)15.0 mph
7:00 PM86.0 °F71.6 °F62 %29.80 in6.2 miNorth (360°)10.4 mph
7:30 PM84.2 °F73.4 °F70 %29.80 in6.2 miNorth (10°)5.8 mph
8:00 PM83.0 °F73.0 °F65 %29.82 inNorth4.6 mph
8:00 PM82.4 °F73.4 °F74 %29.80 in6.2 miNorth (360°)4.6 mph
8:30 PM82.4 °F73.4 °F74 %29.83 in6.2 miNorth (360°)4.6 mph
9:00 PM80.6 °F71.6 °F74 %29.83 in6.2 miNNE (20°)6.9 mph
9:00 PM81.0 °F71.0 °F65 %29.83 inNNE (20°)6.9 mph
9:30 PM80.6 °F69.8 °F70 %29.83 in6.2 miNorth (10°)5.8 mph
10:00 PM80.6 °F68.0 °F65 %29.83 in6.2 miNNE (20°)8.1 mph
10:30 PM80.6 °F68.0 °F65 %29.86 in6.2 miNNE (20°)8.1 mph
11:00 PM80.0 °F70.0 °F64 %29.85 inNorth5.8 mph
11:00 PM80.6 °F69.8 °F70 %29.86 in6.2 miNorth (360°)5.8 mph
11:30 PM78.8 °F71.6 °F78 %29.86 in6.2 miCalm
Hourly data recorded from YPKU, located miles away from Carlton Hill, Western Australia







STORIES FROM OUR PARTNERS